Location: Aranbee
(34.0885°N, 118.2342°W)
Time: 06:19:52
(UTC+00:00)

Explorer 7 - Pass Details

Date: 04 August 2021
Orbit: 484 x 676 km, 50.3° (Epoch: 23 September)

Event Time Altitude Azimuth Distance (km) Brightness Sun altitude
Exits shadow 10:13:02 17° 76° (ENE) 1,284 9.2 -29.7°
Drops below altitude 10° 10:14:07 10° 67° (ENE) 1,670 10.0 -29.5°
Sets 10:16:26 0° 58° (ENE) 2,567 11.3 -29.2°
